Regional Weather Roundup
Issued by NWS

Home | Current Version | Previous Version | Text Only | Print | Product List | Glossary Off
Versions: 1 2 3 4 5 6 7 8 9 10 11 12 13 14 15 16 17 18 19 20 21 22 23 24 25 26 27 28 29 30 31 32 33 34 35 36 37 38 39 40 41 42 43 44 45 46 47 48 49 50

000
ASUS43 KLMK 211902
RWRKY
KENTUCKY REGIONAL WEATHER ROUNDUP
NATIONAL WEATHER SERVICE LOUISVILLE KY
300 PM EDT TUE OCT 21 2014

NOTE "FAIR" INDICATES FEW OR NO CLOUDS BELOW 12,000 FEET
WITH NO SIGNIFICANT WEATHER AND/OR OBSTRUCTIONS TO VISIBILITY.

KYZ001>023-026-027-061>063-070>075-212000-
WESTERN AND SOUTH CENTRAL KENTUCKY

CITY           SKY/WX    TMP DP  RH WIND       PRES   REMARKS
PADUCAH        SUNNY     71  47  42 N12       30.06F
HENDERSON      PTSUNNY  N/A N/A N/A N9        30.07F
OWENSBORO      PTSUNNY   65  46  50 N10G17    30.07F
HOPKINSVILLE   NOT AVBL
BOWLING GREEN  MOSUNNY   69  46  43 N7        30.04F
GLASGOW        NOT AVBL
$$

KYZ024-025-028>034-038-045-046-053-212000-
NORTH CENTRAL KENTUCKY

CITY           SKY/WX    TMP DP  RH WIND       PRES   REMARKS
LOUISVILLE/SDF PTSUNNY   62  41  46 NW9       30.05F
LOUISVILLE/LOU CLOUDY    61  42  49 N12G20    30.06F
FORT KNOX      NOT AVBL
$$

KYZ035>037-039>044-047>052-055>060-089>105-212000-
NORTHEAST KENTUCKY

CITY           SKY/WX    TMP DP  RH WIND       PRES   REMARKS
LEXINGTON      CLOUDY    58  41  53 NW12G18   30.05S
COVINGTON      CLOUDY    55  38  52 N13       30.04S
FRANKFORT      CLOUDY    56  40  55 NW9       30.04F
$$

KYZ054-064>069-076>088-106>120-212000-
SOUTHEAST KENTUCKY

CITY           SKY/WX    TMP DP  RH WIND       PRES   REMARKS
JACKSON        CLOUDY    54  38  54 W6G17     30.01S
LONDON         CLOUDY    61  42  49 NW14G22   30.03F
SOMERSET       CLOUDY    61  43  51 N12G17    30.04F
MIDDLESBORO    NOT AVBL
MONTICELLO     MOCLDY    64  44  48 NW10      30.05F
$$




USA.gov is the U.S. government's official web portal to all federal, state and local government web resources and services.